Location: ??????
(56.0120°N, 39.1740°E)
Time: 07:02:17
(UTC+00:00)

SPOT 3 Rocket - Pass Details

Date: 14 April 2026
Orbit: 774 x 791 km, 98.5° (Epoch: 13 May)

Event Time Altitude Azimuth Distance (km) Brightness Sun altitude
Exits shadow 17:44:42 13° 133° (SE) 2,126 5.1 -10.4°
Maximum altitude 17:49:02 47° 64° (ENE) 1,044 4.0 -10.9°
Drops below altitude 10° 17:53:59 10° 352° (N) 2,357 6.7 -11.4°
Sets 17:56:23 0° 347° (NNW) 3,287 7.7 -11.7°
